Montreal Mirabel, Ontario

1:02 PM EDT on April 25, 2017 (GMT -0400)
Montreal International (Mirabel)

Weather History for CYMX - April, 2014

Change the Weather History Date:

Thursday, April 17, 2014

  Actual Average Record
Temperature  
Mean Temperature 32 °F -  
Max Temperature 44 °F 51 °F 73 °F (2002)
Min Temperature 21 °F 31 °F 15 °F (2003)
Degree Days  
Heating Degree Days 32    
Moisture  
Dew Point 17 °F    
Average Humidity 57    
Maximum Humidity 93    
Minimum Humidity 31    
Precipitation  
Precipitation 0.00 in - - ()
Sea Level Pressure  
Sea Level Pressure 30.69 in    
Wind  
Wind Speed 5 mph ()    
Max Wind Speed 15 mph    
Max Gust Speed 24 mph    
Averages and records for this station are not official NWS values.
T = Trace of Precipitation, MM = Missing Value Source: Averaged Metar Reports

Daily Weather History Graph

Daily Weather History Graph

Search for Another Location

Airport or City:

Trip Planner

Search our weather history database for the weather conditions in past years. The results will help you decide how hot, cold, wet, or windy it might be!

Date:

Astronomy

Apr. 17, 2014 Rise Set
Actual Time 6:06 AM EDT 7:45 PM EDT
Civil Twilight 5:35 AM EDT 8:16 PM EDT
Nautical Twilight 4:57 AM EDT 8:54 PM EDT
Astronomical Twilight 4:16 AM EDT 9:36 PM EDT
Moon 10:34 PM EDT (4/17) 7:31 AM EDT (4/17)
Length of Visible Light 14h 40m
Length of Day
13h 38m
Waning Gibbous, 94% of the Moon is Illuminated
Apr 17
Waning Gibbous
Apr 22
Last Quarter
Apr 29
New
May 6
First Quarter
May 14
Full

Hourly Weather History & Observations

Time (EDT) Temp. Windchill Dew Point Humidity Pressure Visibility Wind Dir Wind Speed Gust Speed Precip Events Conditions
12:00 AM 24.8 °F 19.1 °F 14.0 °F 64% 30.65 in 25.0 mi SSW 4.6 mph - N/A   Partly Cloudy
1:00 AM 24.8 °F 19.1 °F 15.8 °F 69% 30.67 in 25.0 mi South 4.6 mph - N/A   Mostly Cloudy
2:00 AM 23.0 °F 17.0 °F 15.8 °F 74% 30.68 in 25.0 mi SSW 4.6 mph - N/A   Scattered Clouds
3:00 AM 23.0 °F 18.4 °F 17.6 °F 80% 30.70 in 25.0 mi North 3.5 mph - N/A   Scattered Clouds
4:00 AM 21.2 °F - 19.4 °F 93% 30.71 in 25.0 mi Calm Calm - N/A   Partly Cloudy
5:00 AM 21.2 °F - 19.4 °F 93% 30.72 in 25.0 mi Calm Calm - N/A   Partly Cloudy
6:00 AM 21.2 °F 16.4 °F 19.4 °F 93% 30.74 in 25.0 mi NNE 3.5 mph - N/A   Partly Cloudy
7:00 AM 23.0 °F 18.4 °F 19.4 °F 86% 30.77 in 40.0 mi NE 3.5 mph - N/A   Partly Cloudy
8:00 AM 26.6 °F 22.6 °F 21.2 °F 80% 30.78 in 30.0 mi NNE 3.5 mph - N/A   Partly Cloudy
9:00 AM 32.0 °F 26.4 °F 21.2 °F 64% 30.79 in 30.0 mi East 5.8 mph - N/A   Scattered Clouds
10:00 AM 35.6 °F 29.2 °F 14.0 °F 41% 30.80 in 45.0 mi ESE 8.1 mph - N/A   Mostly Cloudy
11:00 AM 37.4 °F 30.3 °F 15.8 °F 41% 30.80 in 45.0 mi ESE 10.4 mph - N/A   Mostly Cloudy
12:00 PM 39.2 °F 32.0 °F 14.0 °F 36% 30.77 in 45.0 mi ESE 11.5 mph 18.4 mph N/A   Mostly Cloudy
1:00 PM 41.0 °F 35.8 °F 14.0 °F 33% 30.75 in 45.0 mi SE 8.1 mph 24.2 mph N/A   Mostly Cloudy
2:00 PM 41.0 °F 33.5 °F 15.8 °F 36% 30.74 in 45.0 mi East 13.8 mph - N/A   Mostly Cloudy
3:00 PM 44.6 °F 38.4 °F 15.8 °F 31% 30.71 in 45.0 mi East 12.7 mph - N/A   Mostly Cloudy
4:00 PM 44.6 °F 37.8 °F 15.8 °F 31% 30.69 in 45.0 mi East 15.0 mph - N/A   Mostly Cloudy
5:00 PM 44.6 °F 38.4 °F 15.8 °F 31% 30.64 in 45.0 mi East 12.7 mph 19.6 mph N/A   Mostly Cloudy
6:00 PM 44.6 °F 38.8 °F 15.8 °F 31% 30.62 in 45.0 mi ESE 11.5 mph 17.3 mph N/A   Mostly Cloudy
7:00 PM 42.8 °F 37.5 °F 14.0 °F 31% 30.61 in 45.0 mi ESE 9.2 mph - N/A   Overcast
8:00 PM 39.2 °F 35.9 °F 17.6 °F 42% 30.59 in 25.0 mi ENE 4.6 mph - N/A   Overcast
9:00 PM 37.4 °F 34.9 °F 19.4 °F 48% 30.59 in 25.0 mi NE 3.5 mph - N/A   Overcast
10:00 PM 33.8 °F 29.6 °F 23.0 °F 65% 30.58 in 25.0 mi ENE 4.6 mph - N/A   Overcast
11:00 PM 33.8 °F - 23.0 °F 65% 30.56 in 25.0 mi Variable 2.3 mph - N/A   Scattered Clouds